CAPE
15 12 16 10 3 1 0 0 0 0 5 14 35 45 34 25 14 25 2 31 6 2 0 0 0 0 0 1 0 1 0 0 0 0 0 1 1 0 0 0 0 0 2 1 9 7 2 0 0 0 0 0 0 0
11 6 0 0 0 0 2 0 0 4 14 17 16 38 34 25 14 28 24 2 0 0 0 2 1 1 0 0 0 2 0 0 2 2 1 1 0 0 0 0 0 0 0 2 0 0 0 0 0 0 0 0 0 0
1 0 0 2 7 14 19 12 8 2 7 16 15 20 32 20 11 25 37 1 0 0 0 1 1 0 0 0 0 0 2 4 6 0 2 0 1 0 0 1 1 0 0 1 0 0 0 0 0 0 0 0 0 0
8 15 18 13 11 10 7 5 2 1 2 11 19 17 22 28 27 11 21 0 6 0 1 0 1 1 1 0 0 0 0 1 0 1 1 1 1 0 0 0 0 0 0 0 0 0 0 0 0 0 0 0 0 0
4 1 0 0 0 0 0 0 3 10 12 23 35 26 12 20 15 83 9 1 1 5 1 1 1 1 3 5 6 4 3 2 2 1 0 0 0 0 0 0 0 0 0 0 0 0 0 0 0 0 0 0 0 0
5 5 6 1 10 5 1 2 0 1 28 24 56 38 17 25 10 0 0 1 0 0 0 0 0 0 8 7 4 4 1 0 0 1 0 0 0 0 0 0 0 0 0 0 0 0 0 0 0 0 0 0 0 3
7 6 6 4 2 1 0 0 0 0 21 23 40 65 87 77 20 0 0 0 0 0 0 0 0 0 3 1 0 0 0 0 0 0 0 0 0 0 0 0 0 0 0 0 0 0 0 0 1 7 4 4 9 14
6 5 4 7 5 6 2 2 4 12 14 18 27 29 14 0 0 2 1 0 0 1 0 1 0 0 0 0 0 1 2 3 0 0 0 0 0 1 0 0 0 0 0 0 0 1 8 0 0 0 3 10 4 4
0 0 0 0 3 6 5 5 6 5 3 1 3 4 0 0 0 0 0 0 1 3 0 0 0 1 0 4 3 8 7 1 0 0 0 0 0 0 0 0 0 5 3 0 0 1 6 0 0 1 1 1 1 0
1 1 0 1 0 0 4 1 0 4 6 4 0 0 0 0 1 0 0 0 0 0 0 0 0 0 0 3 8 0 0 0 0 0 0 2 0 0 0 12 16 0 0 1 8 5 0 2 1 1 1 0 1 3
0 0 0 0 0 0 0 0 0 0 0 15 0 0 0 0 0 0 0 0 0 0 0 0 0 0 0 0 0 0 0 0 0 3 1 4 0 4 0 0 0 3 1 0 3 0 4 1 1 2 2 3 1 0
0 0 0 0 0 0 0 0 0 0 0 0 0 0 0 0 0 0 0 0 0 0 0 0 0 0 1 3 0 0 1 0 1 1 2 1 2 3 0 1 0 1 3 2 2 2 4 4 1 4 3 2 0 2
0 0 0 0 0 0 0 0 0 0 0 0 0 0 0 0 0 0 0 0 0 0 4 0 0 0 0 2 2 1 2 1 3 4 1 1 1 4 3 0 0 2 1 2 1 2 2 3 2 1 2 0 2 2
0 0 0 0 0 0 0 0 0 0 0 0 0 0 0 0 0 0 0 0 0 0 0 3 1 5 1 2 2 3 1 2 8 4 0 3 1 0 1 1 2 0 1 1 4 0 0 0 0 0 0 2 2 0
0 0 0 0 0 0 0 0 0 0 0 0 0 0 2 7 8 13 9 5 14 4 0 1 2 4 3 0 4 2 3 2 0 0 3 2 1 1 1 0 0 0 0 0 1 1 1 0 1 2 2 2 1 1
0 0 0 0 0 0 0 0 0 0 0 0 1 5 12 7 6 7 4 9 10 6 5 8 3 4 2 2 1 0 0 0 3 8 1 0 0 0 0 0 2 0 1 1 1 1 1 0 0 2 2 1 1 0
0 0 0 0 0 0 0 0 0 0 0 0 5 19 12 11 9 11 11 12 6 8 2 1 0 0 1 1 1 3 0 1 2 3 2 1 0 0 0 2 0 1 0 0 0 0 0 0 1 1 0 1 5 4
0 0 0 0 0 0 0 0 0 0 0 0 0 2 4 4 6 5 5 2 3 6 2 1 7 3 2 1 3 6 1 1 0 1 2 0 0 1 0 0 1 0 0 1 1 0 0 0 1 0 1 3 8 7
0 0 0 0 0 0 0 0 0 0 0 0 0 0 0 0 0 0 0 0 6 12 10 4 3 3 7 12 4 6 8 7 2 1 0 0 2 1 0 0 0 0 2 2 1 1 0 0 0 1 3 10 20 20
0 0 0 0 0 0 0 0 0 0 0 0 0 0 0 3 1 0 4 7 0 10 7 3 0 2 5 6 9 6 3 1 3 1 2 2 0 0 1 2 2 0 0 0 0 0 0 0 0 2 5 1 1 8
0 0 0 0 0 0 0 0 0 0 0 1 1 3 4 6 6 2 3 12 3 9 3 5 0 8 1 1 3 3 1 2 0 1 1 0 4 2 3 1 0 0 0 0 1 0 1 3 3 3 8 2 7 2
1 0 0 0 0 0 0 0 2 1 1 2 2 2 2 2 5 5 5 1 4 2 7 13 19 0 2 1 2 0 0 0 0 0 0 0 0 0 0 0 0 1 2 2 1 4 7 5 6 10 11 12 0 1
2 3 1 1 0 0 0 1 5 1 0 3 0 0 1 4 12 0 1 1 1 1 1 1 1 0 0 1 1 1 0 0 2 0 0 0 0 0 0 1 1 2 3 2 3 4 4 4 1 7 4 3 1 1
0 0 0 1 0 1 0 0 1 3 2 2 1 0 0 8 1 5 0 0 2 0 0 1 2 0 0 1 1 1 1 0 0 0 0 0 0 0 0 0 1 2 4 4 2 2 2 4 0 4 2 2 2 1
0 0 1 0 0 1 1 0 0 0 2 0 0 0 0 0 3 0 0 0 4 2 1 1 0 0 0 0 2 0 0 0 0 0 0 0 0 0 0 1 1 4 2 2 3 3 6 5 5 2 2 1 0 0
0 0 0 1 2 1 1 2 1 1 1 1 1 0 0 0 0 0 0 0 0 0 1 1 1 1 0 1 0 0 0 0 0 0 0 0 0 0 2 3 5 16 0 2 1 5 4 3 2 1 0 0 0 0
0 0 0 0 2 1 0 0 0 0 0 0 0 0 0 0 0 0 0 0 0 0 0 0 0 0 0 0 0 0 0 0 0 0 0 0 0 0 2 4 4 0 0 1 2 2 3 3 2 1 1 1 1 1
0 0 0 0 0 0 0 0 0 0 0 0 0 0 0 0 0 0 0 0 0 0 0 0 0 0 0 0 0 0 0 0 0 0 0 0 0 3 1 1 1 0 0 1 0 1 1 3 3 1 1 1 0 1
2 1 0 0 1 0 0 0 0 0 0 0 0 0 0 0 0 0 0 0 0 0 0 0 1 0 0 0 0 0 0 0 0 0 0 0 5 1 0 1 1 1 2 3 0 0 0 0 1 0 1 1 1 0
0 2 2 0 0 0 0 0 0 0 0 0 0 0 0 0 0 0 0 0 0 0 1 1 0 0 1 1 1 0 0 0 0 0 0 0 2 0 0 1 0 3 1 2 2 1 0 0 0 0 0 1 0 0
2 7 6 2 0 0 0 0 0 0 0 0 0 0 0 0 1 0 0 1 1 2 0 0 1 1 1 1 2 0 0 0 0 0 0 0 0 0 1 0 0 2 4 2 2 2 1 1 1 0 0 0 0 0
5 5 2 0 0 0 0 0 0 0 0 1 0 0 1 0 0 0 1 0 0 1 0 1 1 1 1 1 0 0 0 0 0 0 0 0 0 1 2 1 2 2 3 1 1 0 0 1 2 0 0 0 0 0
1 3 4 0 0 0 0 0 0 0 1 1 1 1 1 1 1 2 1 0 0 0 1 0 0 0 0 0 0 0 0 0 0 0 0 0 0 0 0 1 1 1 1 0 2 1 0 0 0 0 0 0 0 0
CIN
-2 -0 -0 -4 -0 -0 -0 -0 -0 -0 -0 -4 -0 -0 -1 -9 -12 -6 -0 -5 -1 -0 -0 -0 -0 -0 -0 -0 -0 -0 -0 -0 -0 -0 -0 -0 -0 -0 -0 -0 -0 -0 -0 -1 -1 -1 -1 -0 -0 -0 -0 -0 -0 -0
-2 -2 -0 -0 -0 -0 -6 -0 -0 -1 -0 -0 -0 -0 -2 -11 -14 -13 -0 -1 -1 -0 -0 -0 -0 -0 -0 -0 -0 -0 -0 -0 -0 -0 -0 -0 -0 -0 -1 -0 -0 -3 -0 -3 -1 -3 -5 -0 -0 -0 -0 -0 -3 -2
-2 -0 -0 -2 -0 -0 -0 -0 -0 -3 -0 -0 -1 -3 -2 -7 -18 -6 -1 -0 -0 -0 -0 -0 -0 -0 -0 -0 -0 -0 -0 -0 -0 -0 -0 -0 -0 -2 -0 -4 -2 -0 -0 -3 -0 -0 -0 -0 -0 -0 -0 -0 -0 -0
-2 -1 -1 -0 -0 -1 -2 -0 -0 -0 -0 -0 -0 -4 -1 -9 -13 -15 -1 -0 -16 -0 -0 -0 -0 -0 -0 -0 -0 -0 -0 -0 -0 -0 -0 -0 -0 -0 -1 -0 -0 -0 -0 -0 -0 -0 -0 -0 -0 -0 -0 -0 -0 -0
-0 -0 -0 -0 -0 -0 -0 -0 -0 -0 -0 -0 -18 -0 -3 -14 -21 -5 -0 -3 -10 -12 -0 -0 -0 -0 -0 -0 -0 -0 -0 -0 -0 -0 -0 -0 -0 -0 -0 -0 -0 -0 -0 -0 -0 -0 -0 -0 -0 -0 -0 -0 -0 -0
-0 -0 -0 -0 -3 -0 -3 -2 -0 -0 -0 -0 -0 -0 -5 -14 -7 -0 -1 -0 -0 -0 -0 -0 -0 -0 -0 -0 -0 -0 -0 -0 -0 -0 -0 -0 -0 -0 -0 -0 -0 -0 -0 -0 -0 -0 -0 -0 -0 -0 -0 -0 -3 -5
-0 -0 -0 -0 -0 -0 -0 -0 -0 -0 -1 -0 -0 -0 -0 -4 -0 -0 -0 -0 -2 -0 -0 -0 -0 -0 -0 -0 -0 -1 -0 -0 -0 -0 -0 -0 -0 -0 -0 -0 -0 -0 -0 -0 -0 -0 -0 -0 -1 -5 -2 -2 -3 -5
-0 -0 -0 -0 -0 -0 -0 -0 -0 -0 -0 -0 -3 -0 -1 -7 -16 -20 -0 -0 -0 -0 -0 -0 -0 -0 -0 -0 -0 -2 -2 -4 -8 -0 -0 -0 -0 -1 -0 -0 -0 -0 -0 -0 -0 -1 -4 -1 -0 -0 -0 -0 -6 -4
-0 -0 -0 -0 -0 -0 -0 -0 -0 -0 -0 -0 -0 -0 -0 -0 -0 -0 -0 -1 -0 -0 -0 -0 -1 -0 -0 -0 -19 -3 -4 -2 -0 -0 -0 -0 -0 -2 -0 -0 -0 -4 -8 -0 -0 -0 -1 -0 -2 -1 -1 -1 -1 -0
-35 -58 -0 -64 -37 -0 -0 -0 -0 -0 -0 -0 -0 -0 -0 -0 -0 -0 -0 -0 -0 -0 -0 -0 -0 -0 -1 -2 -1 -0 -0 -0 -0 -0 -0 -2 -0 -0 -0 -14 -16 -0 -0 -0 -0 -0 -0 -1 -0 -0 -1 -1 -1 -1
-0 -0 -0 -0 -0 -64 -0 -0 -0 -0 -0 -9 -0 -0 -0 -0 -0 -0 -0 -0 -0 -0 -0 -0 -0 -0 -0 -0 -0 -1 -0 -0 -0 -1 -0 -1 -0 -14 -0 -0 -0 -0 -0 -1 -0 -0 -1 -1 -1 -1 -0 -0 -1 -0
-0 -0 -0 -0 -0 -0 -0 -0 -0 -0 -0 -0 -0 -0 -0 -0 -0 -0 -0 -0 -0 -0 -0 -0 -0 -1 -1 -1 -0 -0 -1 -0 -2 -2 -1 -1 -7 -0 -0 -0 -1 -0 -0 -0 -0 -0 -0 -1 -0 -0 -0 -0 -0 -1
-0 -0 -0 -0 -0 -0 -0 -0 -0 -0 -0 -0 -0 -0 -0 -0 -0 -0 -0 -0 -0 -0 -1 -1 -0 -0 -0 -0 -1 -1 -0 -1 -1 -1 -1 -1 -0 -0 -0 -0 -0 -0 -0 -0 -0 -0 -0 -0 -0 -0 -0 -0 -0 -0
-0 -0 -0 -0 -0 -0 -0 -0 -0 -0 -0 -0 -0 -0 -0 -0 -0 -0 -0 -0 -1 -0 -0 -1 -1 -0 -0 -1 -1 -0 -1 -4 -2 -2 -0 -2 -1 -0 -0 -0 -0 -1 -0 -0 -0 -0 -0 -0 -0 -0 -4 -5 -0 -0
-0 -0 -0 -0 -0 -0 -0 -0 -0 -0 -0 -0 -0 -0 -0 -0 -2 -1 -1 -1 -1 -1 -1 -1 -2 -1 -2 -0 -1 -2 -1 -2 -1 -0 -4 -0 -0 -0 -0 -0 -1 -0 -0 -1 -0 -0 -1 -1 -1 -0 -2 -3 -1 -0
-0 -0 -0 -0 -0 -0 -0 -0 -0 -0 -0 -0 -0 -1 -1 -0 -0 -0 -0 -0 -1 -2 -1 -0 -1 -0 -0 -1 -0 -0 -0 -0 -1 -6 -0 -0 -0 -0 -0 -0 -0 -0 -0 -0 -0 -0 -0 -1 -1 -0 -1 -2 -1 -0
-0 -0 -0 -0 -0 -0 -0 -0 -0 -0 -0 -0 -0 -1 -0 -0 -0 -0 -1 -0 -1 -0 -0 -0 -0 -0 -1 -0 -1 -2 -1 -11 -0 -0 -0 -1 -0 -0 -0 -0 -0 -0 -0 -0 -0 -0 -0 -0 -0 -1 -0 -1 -1 -1
-0 -0 -0 -0 -0 -0 -0 -0 -0 -0 -0 -0 -0 -0 -0 -0 -0 -0 -1 -1 -0 -0 -1 -1 -1 -0 -0 -1 -1 -4 -0 -0 -1 -1 -1 -0 -0 -0 -0 -0 -0 -0 -0 -0 -0 -0 -0 -0 -1 -0 -1 -1 -0 -1
-0 -0 -0 -0 -0 -0 -0 -0 -0 -0 -0 -0 -0 -0 -0 -0 -0 -0 -0 -0 -1 -0 -0 -0 -1 -1 -2 -2 -3 -2 -1 -1 -1 -2 -0 -0 -0 -0 -0 -0 -0 -0 -0 -0 -1 -1 -1 -1 -1 -2 -1 -1 -0 -0
-0 -0 -0 -0 -0 -0 -0 -0 -0 -0 -0 -0 -0 -0 -0 -0 -1 -1 -1 -1 -0 -0 -0 -1 -0 -6 -4 -3 -6 -4 -4 -0 -1 -0 -0 -0 -0 -0 -0 -0 -0 -1 -0 -0 -0 -0 -0 -0 -0 -2 -1 -2 -0 -1
-0 -0 -0 -0 -0 -0 -0 -0 -0 -0 -0 -0 -1 -0 -0 -0 -0 -0 -0 -1 -2 -0 -1 -1 -0 -2 -0 -0 -0 -0 -0 -0 -1 -1 -1 -1 -0 -0 -0 -1 -2 -0 -0 -1 -1 -2 -2 -1 -2 -3 -1 -0 -2 -0
-1 -0 -0 -0 -0 -0 -0 -0 -1 -0 -0 -1 -0 -1 -0 -1 -0 -0 -2 -0 -0 -1 -1 -1 -1 -0 -0 -0 -0 -0 -0 -0 -0 -0 -0 -0 -0 -0 -1 -1 -1 -1 -1 -1 -2 -2 -2 -2 -2 -1 -1 -0 -0 -0
-1 -0 -0 -0 -0 -0 -0 -0 -0 -0 -0 -0 -0 -0 -1 -0 -2 -1 -0 -1 -1 -3 -0 -0 -0 -0 -0 -0 -0 -0 -0 -0 -0 -0 -0 -0 -0 -0 -0 -1 -2 -1 -1 -1 -3 -2 -1 -1 -1 -0 -1 -0 -0 -0
-0 -0 -0 -0 -0 -0 -0 -0 -0 -0 -1 -1 -1 -0 -1 -1 -1 -0 -0 -0 -2 -0 -0 -0 -0 -1 -0 -0 -0 -0 -0 -0 -0 -0 -0 -0 -0 -0 -0 -2 -2 -3 -3 -2 -2 -2 -2 -1 -1 -1 -0 -0 -0 -0
-0 -0 -0 -1 -0 -0 -0 -1 -1 -1 -0 -0 -1 -0 -2 -0 -1 -0 -0 -0 -0 -0 -1 -0 -0 -2 -0 -0 -1 -0 -0 -0 -0 -0 -0 -0 -0 -0 -1 -2 -3 -3 -3 -1 -0 -1 -0 -1 -0 -0 -0 -0 -0 -0
-0 -0 -0 -0 -1 -0 -0 -0 -0 -0 -0 -0 -1 -0 -0 -0 -0 -0 -0 -0 -0 -0 -0 -0 -0 -1 -0 -0 -1 -0 -0 -0 -0 -0 -0 -0 -0 -0 -0 -1 -1 -0 -1 -1 -1 -1 -0 -1 -0 -0 -0 -0 -0 -0
-0 -0 -0 -0 -1 -0 -0 -0 -0 -0 -0 -0 -0 -0 -0 -0 -0 -0 -0 -0 -0 -0 -0 -0 -0 -0 -0 -0 -0 -0 -0 -0 -0 -0 -0 -0 -0 -0 -1 -1 -1 -2 -0 -2 -1 -1 -1 -0 -0 -0 -0 -0 -0 -1
-0 -0 -0 -0 -0 -0 -0 -0 -0 -0 -0 -0 -0 -0 -0 -0 -0 -0 -0 -0 -0 -0 -0 -0 -0 -0 -0 -0 -0 -0 -0 -0 -0 -0 -0 -0 -0 -1 -1 -2 -1 -0 -1 -1 -1 -1 -1 -1 -1 -1 -1 -1 -1 -1
-0 -1 -0 -0 -0 -0 -0 -0 -0 -0 -0 -0 -0 -0 -0 -0 -0 -0 -0 -0 -0 -0 -0 -0 -0 -0 -0 -0 -0 -0 -0 -0 -0 -0 -0 -0 -0 -1 -0 -1 -2 -1 -1 -1 -0 -0 -0 -2 -1 -1 -1 -1 -1 -1
-0 -1 -0 -0 -0 -0 -0 -0 -0 -0 -0 -0 -0 -0 -0 -0 -0 -0 -0 -0 -0 -0 -0 -0 -0 -0 -0 -0 -0 -0 -0 -0 -0 -0 -0 -0 -1 -0 -1 -1 -2 -1 -1 -1 -1 -1 -0 -1 -0 -0 -2 -1 -1 -1
-1 -0 -1 -0 -0 -0 -0 -0 -0 -0 -0 -0 -0 -0 -0 -0 -0 -0 -0 -0 -0 -0 -0 -0 -0 -0 -0 -0 -0 -0 -0 -0 -0 -0 -0 -0 -0 -1 -1 -1 -2 -1 -1 -2 -1 -1 -1 -1 -1 -1 -1 -1 -0 -1
-0 -0 -1 -1 -0 -0 -0 -0 -0 -0 -0 -0 -0 -0 -0 -0 -0 -0 -0 -0 -0 -0 -0 -1 -0 -0 -1 -1 -0 -0 -0 -0 -0 -0 -0 -0 -0 -1 -0 -0 -0 -1 -1 -2 -2 -2 -1 -1 -1 -1 -1 -0 -1 -0
-0 -0 -0 -0 -0 -0 -0 -0 -0 -0 -0 -0 -0 -0 -0 -1 -0 -0 -0 -0 -0 -1 -1 -1 -2 -0 -1 -0 -0 -0 -0 -0 -0 -0 -0 -0 -0 -0 -0 -1 -1 -1 -1 -1 -1 -1 -1 -1 -1 -1 -2 -0 -0 -0
Wind_Speed
39 45 46 43 39 39 42 45 45 45 45 45 45 45 44 43 42 41 46 40 49 51 46 36 34 37 33 34 39 31 28 31 30 34 35 35 35 31 30 26 24 24 26 29 29 34 39 17 17 26 24 23 25 28
42 42 43 32 28 29 31 36 41 42 43 43 43 43 42 42 40 39 43 34 33 35 35 33 31 30 33 34 33 28 35 30 29 31 31 29 31 26 25 30 19 26 22 25 23 26 19 16 19 19 23 31 35 39
36 43 44 41 38 36 36 38 39 40 41 40 40 40 40 40 39 39 40 33 34 33 32 31 33 26 24 26 24 31 31 25 26 24 24 26 29 23 27 28 23 23 20 24 25 24 22 22 25 31 35 37 36 33
26 31 35 38 41 43 44 42 36 39 41 40 37 36 35 35 36 37 39 35 35 33 39 33 27 32 28 23 24 25 21 20 16 18 24 25 26 22 24 25 23 19 18 23 28 27 29 30 34 36 34 29 30 30
19 12 21 28 35 38 40 43 42 39 38 38 36 33 32 32 31 30 32 35 34 35 30 29 22 24 17 15 16 14 15 16 20 22 23 23 21 20 20 23 26 19 24 26 30 25 29 33 33 29 34 32 32 31
15 14 8 7 12 21 9 26 50 47 40 36 33 30 28 29 24 25 33 33 32 28 29 30 19 19 13 9 10 11 10 12 16 17 18 18 16 19 24 28 21 19 20 23 28 30 32 34 30 29 32 30 29 28
21 24 23 22 23 23 23 15 19 48 48 36 30 27 23 22 23 31 31 25 26 22 24 24 22 16 11 11 10 10 11 14 14 15 17 16 17 18 25 29 20 23 23 26 28 30 33 30 32 30 32 32 31 29
28 29 27 28 26 30 38 41 39 40 38 30 23 20 19 17 13 17 16 15 18 19 19 23 22 19 15 14 15 14 14 14 16 16 15 18 15 18 28 24 23 24 27 28 28 27 29 25 26 27 28 27 25 24
22 22 26 29 29 29 35 43 42 36 33 28 25 22 22 28 32 34 26 21 18 19 20 21 22 23 14 12 12 13 13 17 15 18 19 18 22 27 25 26 28 28 27 29 29 27 24 23 22 24 25 25 25 24
28 27 26 22 20 25 30 37 34 27 31 31 35 30 29 29 23 23 19 17 18 16 17 17 13 13 11 10 14 14 15 17 21 19 16 25 29 28 29 27 26 25 24 22 23 20 18 18 20 23 26 26 27 27
21 21 22 26 20 25 38 42 41 35 30 30 32 33 32 24 26 20 16 17 14 13 11 7 6 7 6 10 10 13 15 16 22 20 22 26 28 22 20 21 19 17 15 16 18 19 19 21 26 27 27 27 27 27
19 19 19 17 16 13 10 18 31 28 26 27 23 19 19 16 14 13 11 12 12 12 8 6 4 4 6 9 12 13 16 17 22 17 23 28 22 15 15 15 14 14 16 17 20 23 24 24 25 27 28 28 28 27
18 18 18 16 15 12 9 4 8 13 21 16 13 11 11 11 9 11 10 9 7 8 8 6 5 9 10 12 14 16 18 20 17 21 24 23 13 11 12 12 13 14 16 19 23 23 24 25 26 28 29 29 30 29
15 15 16 16 15 13 11 6 3 10 4 8 8 9 11 11 11 10 4 4 2 5 6 4 6 11 9 13 14 17 16 15 20 23 22 13 10 11 12 12 11 13 16 22 25 26 25 26 28 29 29 29 29 29
12 13 15 15 14 13 11 10 9 9 11 12 13 12 12 9 11 12 12 12 11 10 9 7 9 10 10 13 13 14 16 20 18 19 14 10 10 10 10 11 12 15 18 22 27 28 28 29 31 32 30 30 29 29
15 13 15 18 16 15 14 12 12 12 12 13 14 10 10 10 9 10 10 9 9 8 8 9 10 11 12 9 11 13 15 18 16 13 11 10 11 11 13 14 16 19 23 26 28 30 31 32 33 34 33 33 32 31
9 14 20 21 19 18 18 14 16 16 15 13 10 10 8 8 7 8 8 8 8 6 7 9 10 11 10 11 12 12 15 17 13 13 12 13 14 14 16 18 20 22 24 26 28 31 34 35 36 36 37 35 34 31
14 8 9 14 14 12 12 14 11 11 8 7 7 6 6 5 7 4 4 4 7 11 10 12 12 11 12 13 13 11 13 13 13 12 13 13 14 15 18 19 21 23 26 28 30 33 35 35 38 39 38 37 35 31
11 7 6 7 8 13 13 11 13 20 17 17 19 17 16 17 15 18 20 22 16 16 15 19 18 19 10 15 17 14 11 10 10 11 13 14 15 16 19 21 23 24 26 30 31 32 34 34 35 36 35 34 33 30
9 7 7 7 8 18 19 19 18 21 23 23 22 22 21 21 21 22 21 20 19 19 18 17 16 16 10 16 17 16 13 12 11 11 9 9 12 15 18 22 24 27 28 29 30 30 31 32 33 33 33 34 35 30
10 9 9 9 14 14 19 19 19 20 22 21 21 20 19 20 20 20 20 19 18 16 14 16 16 9 11 10 12 12 11 10 10 10 12 12 13 14 16 19 23 26 28 30 32 33 32 32 32 33 33 33 32 31
11 12 12 11 14 16 17 15 18 20 19 19 19 19 17 16 16 16 15 13 11 13 14 12 7 8 7 7 8 9 10 11 12 13 14 15 17 18 19 20 21 24 27 30 31 32 32 31 31 31 31 30 24 21
13 12 14 14 16 16 17 17 17 18 17 17 17 16 15 14 12 12 10 10 9 10 9 9 9 9 9 10 10 11 11 11 12 14 16 18 20 20 20 22 23 26 28 28 29 29 29 29 29 25 25 22 18 16
13 13 14 15 16 16 15 16 15 16 15 14 14 13 13 12 11 9 7 7 10 10 9 9 9 10 10 10 10 11 12 13 15 16 18 19 21 22 23 23 24 24 25 26 25 25 25 25 23 22 19 16 13 11
12 14 16 16 17 17 16 16 16 15 14 13 12 11 11 10 9 8 8 9 9 9 9 9 9 9 10 11 11 13 15 15 17 18 18 20 22 23 23 22 22 23 23 23 23 24 25 24 21 18 16 13 11 9
9 11 13 14 15 15 16 15 15 15 14 12 11 10 11 9 8 8 11 10 10 9 9 9 9 11 12 13 13 14 15 16 17 18 19 21 22 23 22 22 21 20 23 21 21 22 24 23 20 17 15 13 11 9
13 6 6 16 14 14 13 13 13 12 11 10 10 10 9 8 8 10 12 11 10 11 10 10 11 11 12 13 15 16 16 17 18 19 21 21 21 21 21 20 20 21 19 19 20 21 22 22 19 16 14 12 11 10
19 15 3 4 5 7 8 9 9 9 9 10 10 9 9 9 9 12 12 11 12 11 11 12 13 13 13 13 14 14 15 17 18 19 19 19 19 19 19 18 18 17 17 18 19 20 20 19 16 14 13 12 11 10
18 14 10 6 8 7 3 6 6 6 8 7 8 7 7 9 11 11 11 10 10 9 8 9 11 12 13 14 14 14 14 15 16 18 19 20 19 17 17 17 17 17 16 15 17 19 19 18 16 14 13 12 11 10
17 10 14 12 11 5 8 5 9 14 13 12 14 13 10 10 10 10 9 7 6 5 6 7 7 8 9 10 11 13 14 15 16 17 19 20 20 19 18 17 16 15 14 14 15 15 15 15 15 14 13 12 11 10
15 10 18 15 18 17 16 15 16 16 17 16 13 7 3 15 12 6 5 5 5 5 6 6 7 7 8 9 10 12 14 15 15 17 18 18 18 17 16 15 15 14 13 14 14 14 13 13 13 13 13 13 12 11
16 16 16 16 17 18 16 14 14 15 14 13 13 11 13 12 9 11 11 8 7 6 6 7 7 8 9 11 13 16 17 16 15 17 18 18 18 16 15 14 13 13 12 13 14 13 12 12 12 12 13 13 12 11
19 18 16 17 17 16 13 11 11 13 12 12 12 13 9 10 9 13 12 11 10 9 9 9 11 11 11 12 13 15 16 16 17 18 19 19 18 17 15 14 13 12 11 11 13 13 12 12 11 12 12 12 12 12
Wind_Direction
238 233 236 242 247 249 249 249 251 249 246 243 241 239 237 237 237 236 244 245 246 256 261 265 260 255 257 256 261 266 269 273 275 275 280 286 286 285 287 289 286 283 286 290 286 292 295 307 313 302 318 323 317 312
227 231 238 247 242 242 242 248 250 248 245 242 239 236 235 235 235 235 244 247 246 258 261 260 262 269 263 261 259 254 272 269 272 277 280 287 288 288 285 288 286 286 288 289 293 299 309 318 311 321 316 311 309 307
195 227 241 253 257 254 250 249 248 246 243 239 235 234 233 234 234 233 239 240 242 251 262 260 254 268 272 271 266 266 269 272 273 283 283 286 286 286 284 283 287 285 297 293 297 294 296 305 306 307 309 308 311 314
185 205 217 219 221 217 217 218 230 240 237 232 230 229 228 229 231 232 238 239 239 247 254 265 271 263 272 274 270 270 265 276 275 282 285 285 286 289 288 294 285 295 295 294 291 295 302 303 305 307 311 317 316 316
32 165 250 234 226 224 223 221 217 216 222 222 220 220 221 225 229 235 240 238 236 238 252 253 266 279 268 264 263 262 260 266 272 279 283 284 291 294 293 297 293 291 291 291 297 306 305 305 308 315 314 315 316 316
17 356 335 315 177 260 303 217 211 207 204 202 202 205 211 218 209 227 242 239 229 229 244 251 268 273 262 252 266 266 265 269 281 283 284 290 300 296 294 294 304 307 302 299 300 303 304 308 314 315 312 313 313 313
32 25 22 27 25 14 355 14 170 180 177 185 192 195 187 195 213 225 239 228 213 218 235 243 249 264 264 268 274 277 279 282 284 287 288 292 294 296 295 293 308 312 310 307 306 307 306 310 314 321 318 314 313 312
38 38 39 37 37 40 44 61 82 125 146 168 175 174 163 172 200 213 205 179 207 226 239 245 249 246 258 259 266 277 275 281 290 293 299 293 298 301 299 310 310 307 307 308 312 314 314 320 323 325 325 322 318 316
46 51 47 47 48 53 62 72 85 105 122 135 139 142 178 196 193 188 195 204 223 238 241 240 233 241 245 252 267 275 285 282 301 290 295 302 293 293 304 309 308 309 311 312 315 317 316 319 324 326 328 323 320 322
35 37 39 47 79 76 73 75 84 111 137 153 161 173 179 184 168 184 208 217 232 247 256 236 243 232 219 234 267 273 288 287 292 296 312 299 295 299 302 312 317 318 319 323 322 323 328 327 327 320 314 312 302 311
29 34 38 40 51 115 115 113 119 135 151 157 161 160 165 186 190 204 221 228 236 242 247 240 191 190 239 254 268 295 290 297 294 299 301 303 305 308 324 326 332 336 335 336 337 328 320 312 301 302 299 305 307 311
20 21 24 31 42 61 93 140 145 149 151 153 148 165 179 199 222 226 232 245 245 247 232 192 199 241 284 295 295 301 300 303 298 312 305 305 310 326 335 340 343 344 340 334 325 306 293 301 301 302 301 305 311 315
13 15 15 16 20 25 34 84 131 154 163 172 185 197 223 239 251 242 249 258 265 237 226 216 253 273 286 307 301 302 300 300 315 306 308 315 331 346 349 351 351 346 337 319 301 305 302 303 306 308 303 304 303 309
1 4 4 3 359 357 1 1 232 204 289 355 305 277 277 268 272 267 260 265 304 96 97 73 296 298 336 306 313 302 308 317 305 305 310 333 351 5 1 358 1 354 338 308 290 299 303 301 302 303 305 304 308 310
322 336 348 345 339 337 331 328 324 326 342 351 334 307 324 7 33 47 55 72 71 69 71 40 360 344 327 318 317 316 308 306 312 316 337 0 12 8 3 1 351 342 331 320 298 298 302 302 302 301 308 309 309 309
307 310 325 322 322 322 318 321 334 337 337 349 353 38 55 54 45 54 59 56 60 66 49 5 341 329 323 342 325 322 317 312 326 341 354 359 352 347 341 337 333 326 318 313 309 305 303 304 304 304 307 307 307 305
279 321 319 324 322 328 335 337 337 347 345 343 351 23 32 41 45 48 50 44 56 33 358 360 342 336 360 334 327 331 324 327 347 347 347 342 337 334 329 326 323 321 318 316 312 307 304 304 305 304 304 306 305 303
145 182 275 300 288 280 309 320 314 328 341 -0 16 20 24 34 54 7 319 296 282 265 300 302 316 332 329 327 331 346 340 345 348 348 345 344 341 337 333 328 326 323 320 317 313 310 308 307 305 304 304 304 303 302
155 189 243 261 209 173 172 176 172 157 167 172 173 182 191 193 203 197 190 169 243 252 249 213 215 195 138 330 330 349 360 3 358 354 348 345 341 338 333 330 327 325 322 319 317 315 312 311 309 307 307 306 304 303
187 227 261 244 211 145 142 148 158 149 153 155 157 157 164 167 168 171 160 151 159 174 174 175 177 204 153 331 334 342 357 0 0 0 3 2 355 348 340 334 330 327 325 323 321 320 318 315 313 310 308 305 302 301
182 204 215 206 167 164 138 142 142 145 141 145 147 150 153 155 153 158 161 163 166 168 167 179 189 134 13 17 9 10 12 19 15 9 1 360 2 355 350 343 338 333 329 326 323 322 320 318 316 313 310 306 304 299
200 228 197 208 165 160 152 180 162 158 157 148 145 155 135 137 141 151 139 142 150 173 181 178 126 43 47 56 41 37 29 23 15 10 4 358 352 350 348 346 344 339 334 330 328 326 324 322 318 315 312 308 309 307
201 215 158 165 111 113 115 158 125 124 109 107 113 113 113 115 93 94 107 127 118 36 45 39 33 36 39 31 29 19 16 16 10 4 358 353 350 349 348 348 346 341 338 336 335 333 331 328 323 322 318 315 314 311
64 170 144 132 127 122 89 111 99 100 97 107 107 110 95 81 68 95 106 89 27 33 40 41 44 34 29 28 22 14 12 7 1 358 356 353 351 350 349 349 348 348 347 345 344 343 342 338 337 334 332 329 327 322
146 145 160 137 148 134 131 128 134 130 125 117 106 103 76 65 72 58 44 38 38 41 44 51 47 38 24 19 16 9 2 2 358 355 357 356 353 352 352 355 356 357 357 355 355 354 350 348 347 347 348 347 346 342
48 110 116 121 122 126 129 122 131 135 132 131 122 72 54 60 63 59 32 31 36 47 47 39 31 20 12 8 8 6 4 4 4 1 359 359 356 356 357 359 359 4 4 5 2 360 352 352 353 355 355 354 353 350
321 24 42 242 138 119 111 122 117 121 124 122 116 103 98 103 104 50 24 29 25 20 22 21 16 13 10 12 9 8 8 9 6 3 1 2 4 5 5 5 5 6 9 9 8 3 354 354 360 4 5 4 357 353
287 297 355 57 53 96 68 81 92 106 113 105 103 108 94 98 78 27 22 21 15 19 17 12 10 12 14 16 16 17 17 13 10 11 11 12 13 14 13 14 16 17 18 17 12 6 5 8 13 18 20 16 9 3
283 290 297 307 321 337 65 113 100 68 26 64 79 90 93 36 21 25 26 28 28 33 37 30 23 20 19 20 21 23 23 20 14 9 6 6 9 13 20 19 18 21 23 24 21 12 15 20 29 35 37 31 23 18
283 282 287 291 294 300 314 336 346 326 334 337 340 352 9 9 16 21 27 37 48 55 52 48 47 51 38 33 29 27 24 21 18 15 11 10 13 18 18 20 23 27 30 30 26 29 39 44 49 49 50 47 44 36
289 281 282 288 288 288 291 303 309 316 318 325 337 355 20 348 3 31 39 40 50 58 61 59 60 62 47 43 36 28 23 26 26 24 21 20 19 21 23 27 30 35 38 37 33 35 47 58 61 63 64 60 57 60
275 277 284 290 291 287 293 302 312 316 327 334 340 348 347 356 14 14 25 47 57 69 82 77 69 59 53 46 33 25 24 33 35 30 27 25 25 28 31 36 40 42 47 45 37 41 54 64 72 70 66 68 69 68
273 274 280 286 290 291 296 308 327 332 338 347 348 343 359 9 22 14 32 41 46 65 67 62 48 54 55 47 40 35 36 35 35 32 30 28 29 31 36 41 43 49 56 56 41 43 55 67 78 83 78 73 71 76